Stündliche Wetter Çaycuma

Heute, 23 Januar, Samstag

Zeit Temperatur Niederschläge Wind Luftdruck Luftfeuchtigkeit
00:00 +3°C° 0 mm 4 m/S 763 mmHg 74%
01:00 +3°C° 0 mm 4 m/S 763 mmHg 75%
02:00 +4°C° 0 mm 4 m/S 763 mmHg 75%
03:00 +3°C° 0 mm 4 m/S 763 mmHg 76%
04:00 +3°C° 0 mm 4 m/S 763 mmHg 76%
05:00 +3°C° 0 mm 4 m/S 763 mmHg 76%
06:00 +3°C° 0 mm 4 m/S 763 mmHg 76%
07:00 +3°C° 0 mm 4 m/S 763 mmHg 76%
08:00 +4°C° 0 mm 4 m/S 763 mmHg 76%
09:00 +5°C° 0 mm 3 m/S 762 mmHg 75%
10:00 +8°C° 0 mm 3 m/S 762 mmHg 73%
11:00 +10°C° 0 mm 3 m/S 762 mmHg 71%
12:00 +12°C° 0 mm 2 m/S 761 mmHg 71%
13:00 +13°C° 0 mm 2 m/S 761 mmHg 71%
14:00 +13°C° 0 mm 1 m/S 760 mmHg 71%
15:00 +12°C° 0 mm 1 m/S 760 mmHg 75%
16:00 +9°C° 0 mm 2 m/S 760 mmHg 79%
17:00 +8°C° 0 mm 2 m/S 760 mmHg 83%
18:00 +7°C° 0 mm 2 m/S 760 mmHg 82%
19:00 +7°C° 0 mm 2 m/S 760 mmHg 80%
20:00 +5°C° 0 mm 3 m/S 759 mmHg 79%
21:00 +5°C° 0 mm 3 m/S 759 mmHg 78%
22:00 +5°C° 0 mm 3 m/S 759 mmHg 76%
23:00 +4°C° 0 mm 3 m/S 759 mmHg 75%

Morgen, 24 Januar, Sonntag

Zeit Temperatur Niederschläge Wind Luftdruck Luftfeuchtigkeit
00:00 +4°C° 0 mm 3 m/S 759 mmHg 75%
01:00 +4°C° 0 mm 3 m/S 758 mmHg 75%
02:00 +4°C° 0 mm 3 m/S 758 mmHg 75%
03:00 +4°C° 0 mm 3 m/S 758 mmHg 74%
04:00 +4°C° 0 mm 3 m/S 758 mmHg 73%
05:00 +4°C° 0 mm 3 m/S 757 mmHg 73%
06:00 +4°C° 0 mm 4 m/S 757 mmHg 72%
07:00 +4°C° 0 mm 4 m/S 758 mmHg 72%
08:00 +4°C° 0 mm 4 m/S 758 mmHg 71%
09:00 +6°C° 0 mm 4 m/S 758 mmHg 68%
10:00 +9°C° 0 mm 3 m/S 758 mmHg 65%
11:00 +11°C° 0 mm 3 m/S 757 mmHg 62%
12:00 +12°C° 0 mm 3 m/S 757 mmHg 62%
13:00 +13°C° 0 mm 3 m/S 757 mmHg 62%
14:00 +13°C° 0 mm 3 m/S 756 mmHg 62%
15:00 +12°C° 0 mm 3 m/S 756 mmHg 67%
16:00 +11°C° 0 mm 3 m/S 757 mmHg 71%
17:00 +9°C° 0 mm 3 m/S 757 mmHg 75%
18:00 +8°C° 0 mm 4 m/S 757 mmHg 75%
19:00 +7°C° 0 mm 4 m/S 757 mmHg 75%
20:00 +7°C° 0 mm 4 m/S 757 mmHg 75%
21:00 +7°C° 0 mm 4 m/S 757 mmHg 75%
22:00 +6°C° 0 mm 4 m/S 757 mmHg 76%
23:00 +6°C° 0 mm 4 m/S 757 mmHg 76%

übermorgen, 25 Januar, Montag

Zeit Temperatur Niederschläge Wind Luftdruck Luftfeuchtigkeit
00:00 +6°C° 0 mm 4 m/S 757 mmHg 76%
01:00 +6°C° 0 mm 4 m/S 757 mmHg 76%
02:00 +6°C° 0 mm 4 m/S 757 mmHg 76%
03:00 +6°C° 0 mm 4 m/S 756 mmHg 76%
04:00 +7°C° 0 mm 5 m/S 756 mmHg 75%
05:00 +7°C° 0 mm 5 m/S 756 mmHg 75%
06:00 +7°C° 0 mm 5 m/S 755 mmHg 74%
07:00 +7°C° 0 mm 5 m/S 755 mmHg 73%
08:00 +7°C° 0 mm 5 m/S 755 mmHg 72%
09:00 +9°C° 0 mm 5 m/S 755 mmHg 70%
10:00 +10°C° 0 mm 5 m/S 754 mmHg 67%
11:00 +12°C° 0 mm 5 m/S 753 mmHg 64%
12:00 +13°C° 0 mm 5 m/S 753 mmHg 63%
13:00 +13°C° 0 mm 5 m/S 752 mmHg 62%
14:00 +14°C° 0 mm 6 m/S 752 mmHg 60%
15:00 +13°C° 0 mm 5 m/S 752 mmHg 65%
16:00 +12°C° 0 mm 5 m/S 752 mmHg 69%
17:00 +10°C° 0 mm 5 m/S 752 mmHg 73%
18:00 +10°C° 0.1 mm 5 m/S 752 mmHg 74%
19:00 +11°C° 0.1 mm 4 m/S 752 mmHg 75%
20:00 +10°C° 0.1 mm 4 m/S 753 mmHg 76%
21:00 +10°C° 0.1 mm 4 m/S 753 mmHg 77%
22:00 +10°C° 0.1 mm 4 m/S 753 mmHg 77%
23:00 +10°C° 0.1 mm 3 m/S 753 mmHg 78%

26 Januar, Dienstag

Zeit Temperatur Niederschläge Wind Luftdruck Luftfeuchtigkeit
00:00 +10°C° 0.1 mm 3 m/S 753 mmHg 78%
01:00 +10°C° 0.1 mm 4 m/S 753 mmHg 77%
02:00 +10°C° 0.1 mm 4 m/S 753 mmHg 77%
03:00 +10°C° 0.2 mm 4 m/S 753 mmHg 77%
04:00 +10°C° 0.2 mm 4 m/S 753 mmHg 77%
05:00 +10°C° 0.2 mm 3 m/S 753 mmHg 77%
06:00 +10°C° 0.5 mm 4 m/S 753 mmHg 81%
07:00 +10°C° 0.5 mm 4 m/S 754 mmHg 84%
08:00 +8°C° 0.5 mm 4 m/S 755 mmHg 87%
09:00 +8°C° 1 mm 4 m/S 755 mmHg 89%
10:00 +9°C° 1 mm 3 m/S 756 mmHg 91%
11:00 +8°C° 1 mm 3 m/S 756 mmHg 93%
12:00 +8°C° 0.5 mm 3 m/S 756 mmHg 92%
13:00 +8°C° 0.5 mm 3 m/S 756 mmHg 92%
14:00 +8°C° 0.5 mm 2 m/S 756 mmHg 91%
15:00 +8°C° 0.5 mm 2 m/S 756 mmHg 92%
16:00 +7°C° 0.5 mm 2 m/S 756 mmHg 93%
17:00 +7°C° 0.5 mm 2 m/S 756 mmHg 94%
18:00 +8°C° 0.2 mm 1 m/S 756 mmHg 93%
19:00 +8°C° 0.2 mm 1 m/S 756 mmHg 93%
20:00 +8°C° 0.2 mm 1 m/S 756 mmHg 93%
21:00 +7°C° 1.5 mm 1 m/S 756 mmHg 94%
22:00 +7°C° 1.5 mm 1 m/S 756 mmHg 95%
23:00 +6°C° 1.5 mm 1 m/S 756 mmHg 96%

27 Januar, Mittwoch

Zeit Temperatur Niederschläge Wind Luftdruck Luftfeuchtigkeit
00:00 +6°C° 0.8 mm 1 m/S 756 mmHg 96%
01:00 +6°C° 0.8 mm 1 m/S 756 mmHg 96%
02:00 +6°C° 0.8 mm 1 m/S 756 mmHg 96%
03:00 +5°C° 1 mm 2 m/S 755 mmHg 97%
04:00 +5°C° 1 mm 2 m/S 755 mmHg 97%
05:00 +4°C° 1 mm 3 m/S 755 mmHg 97%
06:00 +4°C° 1.3 mm 3 m/S 755 mmHg 97%
07:00 +4°C° 1.3 mm 3 m/S 755 mmHg 97%
08:00 +3°C° 1.3 mm 3 m/S 755 mmHg 97%
09:00 +3°C° 1.2 mm 3 m/S 754 mmHg 97%
10:00 +3°C° 1.2 mm 3 m/S 754 mmHg 97%
11:00 +3°C° 1.2 mm 3 m/S 753 mmHg 97%
12:00 +3°C° 1.5 mm 3 m/S 753 mmHg 97%
13:00 +3°C° 1.5 mm 3 m/S 752 mmHg 97%
14:00 +2°C° 1.5 mm 3 m/S 751 mmHg 97%
15:00 +1°C° 1.8 mm 4 m/S 751 mmHg 98%
16:00 +1°C° 1.8 mm 4 m/S 751 mmHg 98%
17:00 +1°C° 1.8 mm 4 m/S 751 mmHg 98%
18:00 +1°C° 2.4 mm 4 m/S 751 mmHg 98%
19:00 +1°C° 2.4 mm 5 m/S 751 mmHg 98%
20:00 +1°C° 2.4 mm 5 m/S 751 mmHg 98%
21:00 +1°C° 2.2 mm 5 m/S 751 mmHg 98%
22:00 +1°C° 2.2 mm 5 m/S 751 mmHg 98%
23:00 +1°C° 2.2 mm 6 m/S 751 mmHg 98%

28 Januar, Donnerstag

Zeit Temperatur Niederschläge Wind Luftdruck Luftfeuchtigkeit
00:00 0°C° 1.7 mm 5 m/S 751 mmHg 98%
01:00 0°C° 1.7 mm 4 m/S 752 mmHg 98%
02:00 +1°C° 1.7 mm 3 m/S 752 mmHg 98%
03:00 +1°C° 1.1 mm 3 m/S 753 mmHg 98%
04:00 +2°C° 1.1 mm 2 m/S 753 mmHg 98%
05:00 +3°C° 1.1 mm 1 m/S 753 mmHg 98%
06:00 +2°C° 0.7 mm 2 m/S 754 mmHg 98%
07:00 +2°C° 0.7 mm 2 m/S 754 mmHg 98%
08:00 +2°C° 0.7 mm 2 m/S 755 mmHg 98%
09:00 +2°C° 0.5 mm 2 m/S 755 mmHg 97%
10:00 +2°C° 0.5 mm 3 m/S 755 mmHg 96%
11:00 +2°C° 0.5 mm 3 m/S 755 mmHg 95%
12:00 +2°C° 0.6 mm 3 m/S 755 mmHg 94%
13:00 +2°C° 0.6 mm 3 m/S 755 mmHg 93%
14:00 +2°C° 0.6 mm 3 m/S 755 mmHg 93%
15:00 +2°C° 0.6 mm 3 m/S 755 mmHg 93%
16:00 +2°C° 0.6 mm 2 m/S 755 mmHg 93%
17:00 +2°C° 0.6 mm 2 m/S 756 mmHg 93%
18:00 +2°C° 0.8 mm 2 m/S 756 mmHg 94%
19:00 +2°C° 0.8 mm 2 m/S 756 mmHg 96%
20:00 +2°C° 0.8 mm 2 m/S 757 mmHg 97%
Mehr zeigen

Wir brauchen deine Erlaubnis

Meteoprog und unser Service Anbieter werden persönliche Daten aufbewahren, so wie Cookies, Geräte Bezeichnung oder ähnliche Technologien von deinem Gerät und Prozess, so wie Persönliche Daten Inhalte und Werbungen, genauso wie social Media und den Verkehr zu analysieren.

  • Aufbewahrung und/oder Zugang zu deiner Geräte Informationen.

    Cookies, Geräte Bezeichnung oder andere Informationen, können aufbewahrt oder Zugang zu deinem Gerät erhalten, für den Grund, der oben angegeben wird.

  • Personalisierte Werbung und Inhalte, Messungen, Einblick in das Publikum und Produkt Entwicklung.

    Werbungen und Inhalte können personalisiert werden, basierend auf ein Profil. Mehr Daten können besser personalisierte Werbungen und Inhalte hinzufügen. Werbung und Inhalte können gezeigt und gemessen werden. Einblicke über das Publikum, welche die Werbung gesehen haben und den Inhalt, können abgeleitet werden. So wie Daten können genutzt werden, um es zu verbessern oder die Benutzer Erfahrung zu verbessern das System und die Software.

Wenn du “Ich stimme zu” klickst, erlaubst du uns, die Cookies zu benutzen die Geräte Bezeichnung, den Web oder ähnliche Technologien zu benutzen. Deine Settings, können in deinem Gerät bei deinem Browser geändert werden.

Für den bestimmten Zweck, berechtigten Interessen beruhen darauf, mehr als auf den Inhalt. Du kannst mehr darüber in unseren Privaten und Cookie Politik lesen.